Terug naar catalogus

STARLINK-35505

ActiefCommunicatieVLEO
NORAD 66329·PAYLOAD·🇺🇸 United States

Gelanceerd Nov 6, 2025 vanaf Cape Canaveral Space Force Station

Loading…

Volgende Passages (komende 24 uur)

TLE

VersSource: CelesTrak SupGP

Epoch: Sep 14, 2026, 20:56 UTC

1 66329C 25253L   26257.87270833  .00033638  00000+0  12183-2 0  2579
2 66329  43.0012 224.1067 0001413 262.8228 236.8231 15.27563621    13

Volg STARLINK-35505 in realtime met AllMySat

Download on the App Store